Terminal Aerodrome Forecast
Issued by NWS

Home | Current Version | Previous Version | Text Only | Print | Product List | Glossary On
Versions: 1 2 3 4 5 6 7 8 9 10 11 12 13 14 15 16
000
FTAK31 PAFA 192340
TAFAFA
TAF
PAFA 192340Z 2000/2106 00000KT P6SM SCT120 OVC150
     FM200900 03003KT P6SM SCT150=

USA.gov is the U.S. government's official web portal to all federal, state and local government web resources and services.